| time (UTC) | temp C | wind direction | speed KPH | gust KPH | rain 1hr cm | rain 24hr cm | rain mn cm | humidity % | barometer mb |
| 20260510224505 | 16 | 210 | 16.1 | 20.9 | 0.00 | 0.25 | 0.15 | 51 | 1015.3 |
| 20260510223002 | 16 | 193 | 16.1 | 24.1 | 0.00 | 0.25 | 0.15 | 53 | 1015.4 |
| 20260510221501 | 16 | 151 | 9.7 | 19.3 | 0.00 | 0.25 | 0.15 | 52 | 1015.5 |
| 20260510220002 | 16 | 178 | 11.3 | 24.1 | 0.00 | 0.25 | 0.15 | 55 | 1015.5 |
| 20260510214601 | 16 | 201 | 12.9 | 20.9 | 0.00 | 0.25 | 0.15 | 51 | 1015.5 |
| 20260510213118 | 15 | 185 | 14.5 | 25.7 | 0.00 | 0.25 | 0.15 | 58 | 1015.7 |
| 20260510211602 | 16 | 175 | 12.9 | 19.3 | 0.00 | 0.25 | 0.15 | 52 | 1015.8 |
| 20260510210056 | 15 | 271 | 6.4 | 19.3 | 0.00 | 0.25 | 0.15 | 51 | 1015.9 |
| 20260510204613 | 15 | 170 | 9.7 | 16.1 | 0.00 | 0.25 | 0.15 | 53 | 1016.2 |
| 20260510203055 | 15 | 180 | 9.7 | 19.3 | 0.00 | 0.25 | 0.15 | 53 | 1016.2 |
| 20260510201559 | 15 | 184 | 11.3 | 19.3 | 0.00 | 0.25 | 0.15 | 56 | 1016.2 |
| 20260510200052 | 15 | 161 | 11.3 | 17.7 | 0.00 | 0.25 | 0.15 | 57 | 1016.4 |
| 20260510194553 | 14 | 140 | 14.5 | 20.9 | 0.00 | 0.25 | 0.15 | 61 | 1016.5 |
| 20260510193045 | 13 | 172 | 11.3 | 19.3 | 0.00 | 0.25 | 0.15 | 62 | 1016.4 |
| 20260510191545 | 13 | 185 | 6.4 | 16.1 | 0.00 | 0.25 | 0.15 | 59 | 1016.4 |
| 20260510190057 | 13 | 180 | 6.4 | 20.9 | 0.00 | 0.25 | 0.15 | 61 | 1016.5 |
| 20260510184543 | 13 | 117 | 4.8 | 14.5 | 0.00 | 0.25 | 0.15 | 62 | 1016.6 |
| 20260510183040 | 13 | 166 | 11.3 | 16.1 | 0.00 | 0.25 | 0.15 | 63 | 1016.6 |
| 20260510181549 | 12 | 187 | 3.2 | 12.9 | 0.00 | 0.25 | 0.15 | 64 | 1016.7 |
| 20260510180037 | 12 | 206 | 4.8 | 9.7 | 0.00 | 0.25 | 0.15 | 65 | 1016.8 |
| 20260510174543 | 12 | 148 | 9.7 | 16.1 | 0.00 | 0.25 | 0.15 | 67 | 1016.8 |
| 20260510173033 | 12 | 170 | 4.8 | 12.9 | 0.00 | 0.25 | 0.15 | 67 | 1016.8 |
| 20260510171543 | 11 | 176 | 8.0 | 12.9 | 0.00 | 0.25 | 0.15 | 70 | 1016.7 |
| 20260510170029 | 11 | 114 | 6.4 | 16.1 | 0.00 | 0.25 | 0.15 | 71 | 1016.7 |
| 20260510164524 | 11 | 123 | 8.0 | 12.9 | 0.00 | 0.25 | 0.15 | 78 | 1016.7 |
| 20260510163022 | 10 | 121 | 4.8 | 11.3 | 0.00 | 0.25 | 0.15 | 76 | 1016.7 |
| 20260510161520 | 10 | 148 | 3.2 | 12.9 | 0.00 | 0.25 | 0.15 | 78 | 1016.6 |
| 20260510160029 | 9 | 98 | 0.0 | 9.7 | 0.00 | 0.25 | 0.15 | 78 | 1016.6 |
| 20260510154517 | 10 | 34 | 4.8 | 14.5 | 0.00 | 0.25 | 0.15 | 81 | 1016.7 |
| 20260510153022 | 9 | 56 | 8.0 | 14.5 | 0.00 | 0.25 | 0.15 | 82 | 1016.6 |
| 20260510151518 | 8 | 50 | 6.4 | 17.7 | 0.00 | 0.25 | 0.15 | 87 | 1016.5 |
| 20260510150011 | 8 | 74 | 12.9 | 17.7 | 0.00 | 0.25 | 0.15 | 88 | 1016.3 |
| 20260510144511 | 7 | 63 | 11.3 | 16.1 | 0.00 | 0.25 | 0.15 | 89 | 1016.3 |
| 20260510143004 | 7 | 36 | 9.7 | 16.1 | 0.00 | 0.25 | 0.15 | 90 | 1016.3 |
| 20260510141506 | 7 | 25 | 14.5 | 17.7 | 0.00 | 0.25 | 0.15 | 90 | 1016.2 |
| 20260510140002 | 7 | 35 | 11.3 | 20.9 | 0.00 | 0.25 | 0.15 | 91 | 1016.3 |
| 20260510134600 | 7 | 15 | 17.7 | 25.7 | 0.00 | 0.25 | 0.15 | 91 | 1016.0 |
| 20260510134502 | 7 | 40 | 17.7 | 25.7 | 0.00 | 0.25 | 0.15 | 91 | 1016.0 |
| 20260510133102 | 7 | 17 | 14.5 | 19.3 | 0.00 | 0.25 | 0.15 | 92 | 1015.9 |
| 20260510131600 | 7 | 16 | 14.5 | 17.7 | 0.00 | 0.25 | 0.15 | 92 | 1015.9 |
| 20260510130058 | 6 | 20 | 11.3 | 17.7 | 0.00 | 0.25 | 0.15 | 92 | 1015.7 |
| 20260510124600 | 6 | 355 | 9.7 | 14.5 | 0.00 | 0.25 | 0.15 | 93 | 1015.6 |
| 20260510123054 | 6 | 355 | 9.7 | 16.1 | 0.00 | 0.25 | 0.15 | 93 | 1015.4 |
| 20260510121552 | 6 | 343 | 8.0 | 16.1 | 0.00 | 0.25 | 0.15 | 93 | 1015.2 |
| 20260510120051 | 6 | 341 | 11.3 | 16.1 | 0.00 | 0.25 | 0.15 | 93 | 1015.0 |
| 20260510114600 | 6 | 320 | 9.7 | 19.3 | 0.03 | 0.25 | 0.15 | 93 | 1014.9 |
| 20260510113057 | 6 | 321 | 11.3 | 17.7 | 0.03 | 0.25 | 0.15 | 93 | 1015.0 |
| 20260510111547 | 6 | 360 | 11.3 | 17.7 | 0.03 | 0.25 | 0.15 | 93 | 1014.6 |
| 20260510110052 | 6 | 345 | 11.3 | 16.1 | 0.03 | 0.25 | 0.15 | 93 | 1014.4 |
| 20260510104547 | 6 | 360 | 8.0 | 14.5 | 0.00 | 0.23 | 0.13 | 93 | 1014.4 |
| 20260510103049 | 6 | 26 | 11.3 | 19.3 | 0.00 | 0.23 | 0.13 | 93 | 1014.2 |
| 20260510101556 | 6 | 13 | 14.5 | 17.7 | 0.00 | 0.23 | 0.13 | 93 | 1014.0 |
| 20260510100049 | 6 | 13 | 14.5 | 19.3 | 0.00 | 0.23 | 0.13 | 93 | 1014.2 |
| 20260510094548 | 6 | 17 | 14.5 | 22.5 | 0.00 | 0.23 | 0.13 | 93 | 1013.9 |
| 20260510093040 | 7 | 23 | 14.5 | 24.1 | 0.00 | 0.23 | 0.13 | 93 | 1014.0 |
| 20260510091538 | 7 | 36 | 14.5 | 25.7 | 0.00 | 0.23 | 0.13 | 93 | 1013.7 |
| 20260510090038 | 7 | 26 | 17.7 | 22.5 | 0.03 | 0.23 | 0.13 | 93 | 1013.7 |
| 20260510084538 | 7 | 31 | 16.1 | 20.9 | 0.13 | 0.23 | 0.13 | 93 | 1013.5 |
| 20260510083035 | 7 | 42 | 19.3 | 24.1 | 0.13 | 0.23 | 0.13 | 93 | 1013.2 |
| 20260510081541 | 7 | 32 | 14.5 | 17.7 | 0.13 | 0.23 | 0.13 | 92 | 1013.5 |
| 20260510080050 | 7 | 54 | 19.3 | 27.4 | 0.08 | 0.18 | 0.08 | 91 | 1013.0 |
| 20260510074531 | 7 | 325 | 14.5 | 19.3 | 0.00 | 0.10 | 0.00 | 92 | 1013.8 |
| 20260510073039 | 7 | 9 | 16.1 | 22.5 | 0.00 | 0.10 | 0.00 | 92 | 1012.8 |
| 20260510071525 | 7 | 14 | 19.3 | 24.1 | 0.00 | 0.10 | 0.00 | 92 | 1012.6 |
| 20260510070028 | 7 | 10 | 16.1 | 29.0 | 0.00 | 0.10 | 0.00 | 92 | 1012.3 |
| 20260510063040 | 6 | 5 | 14.5 | 19.3 | 0.00 | 0.10 | 0.00 | 90 | 1011.7 |
| 20260510061535 | 6 | 333 | 8.0 | 12.9 | 0.00 | 0.10 | 0.00 | 87 | 1011.2 |